Overview Statistics Trail Chart Weather Telemetry Raw packets
 

This is the latest recevied weather packets stored in our database for station/object K7MT-WX. If no packets are shown the sender has not sent any weather packets the latest 10 day(s).

<< 7 8 9 10 11 12 13 >>
Time Temp. Humidity Pressure Rain* Wind** Luminosity Snow
1788425117 7.22° C 85% 1009 hPa 0 mm - - -
1788424217 7.22° C 85% 1008.9 hPa 0 mm - - -
1788423287 7.22° C 84% 1008.9 hPa 0 mm - - -
1788422357 7.78° C 83% 1008.8 hPa 0 mm - - -
1788421427 8.33° C 82% 1008.9 hPa 0 mm - - -
1788420497 8.89° C 79% 1008.8 hPa 0 mm - - -
1788419567 8.89° C 78% 1008.9 hPa 0 mm - - -
1788418637 9.44° C 75% 1008.8 hPa 0 mm - - -
1788417707 9.44° C 76% 1008.8 hPa 0 mm - - -
1788416777 10° C 74% 1008.8 hPa 0 mm - - -
1788415847 11.11° C 69% 1008.9 hPa 0 mm - - -
1788414917 10.56° C 72% 1008.9 hPa 0 mm - - -
1788413987 11.11° C 71% 1008.8 hPa 0 mm - - -
1788413057 11.11° C 71% 1009.2 hPa 0 mm - - -
1788412127 11.67° C 70% 1009.4 hPa 0 mm - - -
1788411197 12.22° C 66% 1009.4 hPa 0 mm - - -
1788410267 11.67° C 70% 1009.4 hPa 0 mm - - -
1788409337 12.22° C 69% 1009.4 hPa 0 mm - - -
1788408407 12.22° C 68% 1009.4 hPa 0 mm - - -
1788407507 12.78° C 65% 1009.6 hPa 0 mm - - -
1788406607 13.33° C 63% 1009.5 hPa 0 mm - - -
1788405707 13.89° C 61% 1009.5 hPa 0 mm - - -
1788404807 15° C 57% 1009.4 hPa 0 mm - - -
1788403907 15° C 56% 1009.4 hPa 0 mm - - -
1788403007 15° C 57% 1009.3 hPa 0 mm - - -

* Rain latest hour (hover to see other rain measurements)
** Current wind speed in m/s (hover to see current wind gust speed)